Terminal Aerodrome Forecast
Issued by NWS

Home | Current Version | Previous Version | Graphics & Text | Print | Product List | Glossary On
Versions: 1 2 3 4 5 6 7 8 9 10 11 12 13 14 15 16
000
FTUS43 KTOP 140100 AAA
TAFMHK
TAF AMD
KMHK 140135Z 1402/1424 35017G27KT 3SM -RASN OVC012
     FM141000 34015G22KT 4SM -SN OVC012
     FM141400 34014G21KT P6SM BKN035=

USA.gov is the U.S. government's official web portal to all federal, state and local government web resources and services.